Weather History for Poplar Bluff, MO

Change the Weather History Date:

Friday, April 19, 2013

  Actual Average Record
Temperature  
Mean Temperature 50 °F -  
Max Temperature 57 °F 70 °F 88 °F (1925)
Min Temperature 43 °F 48 °F 28 °F (1926)
Degree Days  
Heating Degree Days 15    
Moisture  
Dew Point 28 °F    
Average Humidity 49    
Maximum Humidity 68    
Minimum Humidity 28    
Precipitation  
Precipitation 0.00 in - - ()
Sea Level Pressure  
Sea Level Pressure 29.97 in    
Wind  
Wind Speed 11 mph (West)    
Max Wind Speed 17 mph    
Max Gust Speed 26 mph    
Visibility 10 miles    
Events      
Averages and records for this station are not official NWS values.
T = Trace of Precipitation, MM = Missing Value Source: NWS Daily Summary

Daily Weather History Graph

Daily Weather History Graph

Search for Another Location

Airport:

Trip Planner

Search our weather history database for the weather conditions in past years. The results will help you decide how hot, cold, wet, or windy it might be!

Date:

Astronomy

Apr. 19, 2013 Rise Set
Actual Time 6:21 AM CDT 7:39 PM CDT
Civil Twilight 5:54 AM CDT 8:06 PM CDT
Nautical Twilight 5:22 AM CDT 8:38 PM CDT
Astronomical Twilight 4:48 AM CDT 9:12 PM CDT
Moon 1:33 PM CDT (4/19) 2:27 AM CDT (4/19)
Length of Visible Light 14h 11m
Length of Day
13h 17m
First Quarter, 62% of the Moon is Illuminated
Apr 19
First Quarter
Apr 25
Full
May 2
Last Quarter
May 9
New
May 17
First Quarter

Hourly Weather History & Observations

Time (CDT) Temp. Windchill Dew Point Humidity Pressure Visibility Wind Dir Wind Speed Gust Speed Precip Events Conditions
12:53 AM 45.0 °F 39.3 °F 33.1 °F 63% 29.83 in 10.0 mi WNW 11.5 mph 20.7 mph N/A   Overcast
1:53 AM 45.0 °F 40.1 °F 33.1 °F 63% 29.84 in 10.0 mi WNW 9.2 mph - N/A   Overcast
2:53 AM 44.1 °F 37.1 °F 30.9 °F 60% 29.85 in 10.0 mi WNW 15.0 mph 23.0 mph N/A   Overcast
3:53 AM 44.1 °F 38.6 °F 30.9 °F 60% 29.86 in 10.0 mi West 10.4 mph 19.6 mph N/A   Overcast
4:53 AM 44.1 °F 38.6 °F 30.9 °F 60% 29.87 in 10.0 mi West 10.4 mph - N/A   Overcast
5:53 AM 43.0 °F 37.7 °F 28.9 °F 58% 29.90 in 10.0 mi West 9.2 mph 17.3 mph N/A   Overcast
6:53 AM 43.0 °F 36.0 °F 27.0 °F 53% 29.94 in 10.0 mi West 13.8 mph 23.0 mph N/A   Overcast
7:53 AM 43.0 °F 38.8 °F 28.9 °F 58% 29.96 in 10.0 mi West 6.9 mph - N/A   Overcast
8:53 AM 43.0 °F 37.2 °F 28.0 °F 56% 29.97 in 10.0 mi West 10.4 mph - N/A   Overcast
9:53 AM 43.0 °F 36.4 °F 28.0 °F 56% 29.99 in 10.0 mi WNW 12.7 mph 18.4 mph N/A   Overcast
10:53 AM 45.0 °F 40.1 °F 28.0 °F 52% 29.99 in 10.0 mi West 9.2 mph 17.3 mph N/A   Overcast
11:53 AM 45.0 °F 39.3 °F 28.9 °F 53% 30.01 in 10.0 mi West 11.5 mph 24.2 mph N/A   Overcast
12:53 PM 46.9 °F - 28.9 °F 50% 30.00 in 10.0 mi West 16.1 mph 20.7 mph N/A   Overcast
1:53 PM 48.0 °F - 28.0 °F 46% 30.00 in 10.0 mi West 17.3 mph 26.5 mph N/A   Scattered Clouds
2:53 PM 53.1 °F - 30.0 °F 41% 29.99 in 10.0 mi West 9.2 mph 25.3 mph N/A   Scattered Clouds
3:53 PM 55.0 °F - 27.0 °F 34% 29.97 in 10.0 mi West 12.7 mph 24.2 mph N/A   Clear
4:53 PM 57.0 °F - 26.1 °F 30% 29.98 in 10.0 mi West 11.5 mph 18.4 mph N/A   Clear
5:53 PM 57.0 °F - 24.1 °F 28% 29.99 in 10.0 mi WNW 13.8 mph 21.9 mph N/A   Clear
6:53 PM 55.9 °F - 23.0 °F 28% 30.00 in 10.0 mi WNW 17.3 mph 23.0 mph N/A   Clear
7:53 PM 54.0 °F - 24.1 °F 31% 30.04 in 10.0 mi WNW 10.4 mph - N/A   Clear
8:53 PM 51.1 °F - 25.0 °F 36% 30.07 in 10.0 mi West 5.8 mph - N/A   Partly Cloudy
9:53 PM 50.0 °F - 26.1 °F 39% 30.09 in 10.0 mi West 4.6 mph - N/A   Clear
10:53 PM 46.9 °F - 30.0 °F 52% 30.10 in 10.0 mi Calm Calm - N/A   Clear
11:53 PM 43.0 °F 41.3 °F 33.1 °F 68% 30.12 in 10.0 mi SW 3.5 mph - N/A   Clear